SCP
0 0 0 0 0 0 0 0 0 0 0 0 0 0 0 0 0 0 0 0 0 0 -0 0 0 0 0 0 0 0 0 0
0 0 0 0 0 0 0 0 0 0 0 0 0 0 0 0 0 0 0 0 0 0 0 0 0 0 0 0 0 0 0 0
0 0 0 0 0 0 0 0 0 0 0 0 0 0 0 0 0 0 0 0 0 0 0 0 0 0 0 0 0 0 0 0
0 0 0 0 0 0 0 0 0 0 0 0 0 0 0 0 0 0 0 0 0 0 0 0 0 0 0 0 0 0 0 -0
0 0 0 0 0 0 0 0 0 0 0 0 0 0 0 0 0 0 0 0 0 0 0 0 0 0 0 0 0 0 0 0
0 0 0 0 0 0 0 0 0 0 0 0 0 0 0 0 0 0 0 0 0 0 0 0 0 0 0 0 0 0 0 0
0 0 0 0 0 0 0 0 0 0 0 0 0 0 0 0 0 0 0 0 0 0 0 0 0 0 0 0 0 0 0 0
0 0 0 0 0 0 0 0 0 0 0 0 0 0 0 0 0 0 0 0 0 0 0 0 0 0 0 0 0 0 0 0
0 0 0 0 0 0 0 0 0 0 0 0 0 0 0 0 0 0 0 0 0 0 0 0 0 -0 0 0 0 0 0 0
0 0 0 0 0 0 0 0 0 0 0 0 0 0 0 0 0 0 0 0 0 0 0 0 0 0 -0 0 0 0 0 0
0 0 0 0 0 0 0 0 0 0 0 0 0 0 0 0 0 0 0 0 0 0 0 0 0 -0 -0 -0 0 0 0 0
0 0 0 0 0 0 0 0 0 0 0 0 0 0 0 0 0 0 0 0 0 0 0 0 0 0 -0 -0 0 0 0 0
0 0 0 0 0 0 0 0 0 0 0 0 0 0 0 0 0 0 0 0 0 0 0 0 0 0 0 0 0 0 0 0
0 0 0 0 0 0 0 0 0 0 0 0 0 0 0 0 0 0 0 0 0 0 0 0 0 0 0 0 0 0 0 0
0 0 0 0 0 0 0 0 0 0 0 0 0 0 0 0 0 0 0 0 0 0 0 0 0 0 0 0 0 0 0 0
0 0 0 0 0 0 0 0 0 0 0 0 0 0 0 0 0 0 0 0 0 0 0 0 0 0 0 0 0 0 0 0
0 0 0 0 0 0 0 0 0 0 0 0 0 0 0 0 0 0 0 0 0 0 0 0 0 0 0 -0 -0 -0 0 0
0 0 0 0 0 0 0 0 0 0 0 0 0 0 0 0 0 0 0 0 0 0 0 0 0 -0 -0 -0 0 -0 0 0
0 0 0 0 0 0 0 0 0 0 0 0 0 0 0 0 0 0 0 0 0 0 0 0 0 -0 0 0 -0 0 0 0
0 0 0 0 0 0 0 0 0 0 0 0 0 0 0 0 0 0 0 0 0 0 0 0 0 0 0 0 -0 -0 -0 0
Wind_Speed_500mb
10 11 11 12 13 16 20 27 29 31 33 34 34 32 33 35 38 39 41 44 46 43 42 43 46 49 46 49 47 41 41 51
15 15 14 13 14 18 24 30 30 32 33 33 35 36 36 35 36 37 39 42 44 46 45 42 43 45 47 46 50 49 36 42
19 17 16 16 16 20 25 29 32 35 36 37 40 42 41 39 36 35 36 39 43 44 45 45 40 40 45 47 48 51 49 39
23 20 19 17 18 23 28 31 37 42 44 46 49 52 52 50 46 40 37 36 38 40 44 44 45 39 37 42 46 47 48 47
26 24 22 20 23 27 31 36 40 44 47 49 50 50 53 55 55 51 45 41 37 36 38 41 40 41 37 36 41 45 46 46
31 27 24 22 26 29 34 34 36 39 40 41 44 46 47 48 49 48 47 44 40 36 34 36 37 37 40 35 35 41 43 44
38 33 27 23 27 31 29 27 27 32 36 40 43 45 47 47 46 43 38 37 37 34 32 32 33 33 32 34 31 33 39 43
42 34 28 23 26 26 20 18 23 29 34 38 41 44 45 46 44 41 35 29 30 31 30 27 28 30 29 28 29 27 32 38
43 36 27 24 23 17 11 15 20 26 30 35 39 42 43 43 42 39 36 31 26 25 26 25 24 29 29 27 22 22 23 29
39 33 26 23 19 11 7 11 16 22 27 32 37 41 42 43 43 40 36 30 25 23 24 26 24 26 27 27 20 16 16 18
41 31 26 22 18 11 4 6 11 17 24 30 35 38 41 44 44 41 38 35 29 22 22 25 25 24 27 25 21 20 15 13
39 29 25 23 19 11 6 4 8 14 20 25 31 35 40 41 43 43 41 36 33 27 19 21 25 23 25 28 24 26 19 17
39 31 29 28 22 15 10 4 4 10 16 21 26 32 36 39 41 43 43 39 39 36 29 21 23 23 23 28 25 22 21 17
39 35 34 31 25 20 14 8 1 7 12 16 22 27 32 36 39 42 44 42 41 40 39 37 28 23 23 25 31 25 23 21
43 41 39 35 30 24 19 12 5 2 8 12 17 22 27 31 35 38 42 43 43 45 45 43 39 35 28 29 29 25 24 27
45 43 41 37 32 28 23 16 9 3 5 10 14 18 20 24 30 33 36 39 43 46 46 47 46 43 42 39 34 33 32 32
49 46 43 39 35 31 27 20 14 8 6 9 12 16 19 20 21 26 29 31 34 39 45 46 42 42 41 38 33 36 34 25
47 44 43 41 38 34 30 24 19 13 10 10 12 15 20 25 28 26 22 28 31 34 39 45 50 46 43 42 37 26 20 15
48 46 44 42 39 36 33 28 23 18 15 14 15 17 19 24 28 32 35 34 33 32 36 40 46 48 51 52 40 24 18 16
48 46 46 43 42 39 35 32 27 23 21 20 20 21 22 26 29 32 34 37 36 35 34 37 41 47 49 53 50 38 24 20
Wind_Direction_500mb
211 239 261 280 302 314 327 331 333 336 341 344 345 346 347 349 352 356 358 359 358 354 355 1 6 3 13 12 12 353 358 360
208 231 248 264 288 310 325 327 329 333 337 338 336 335 336 337 340 346 351 354 356 359 355 353 0 5 3 11 12 11 359 350
208 223 240 254 281 307 317 319 322 325 327 327 325 323 323 324 326 329 336 343 350 354 355 355 351 1 4 5 10 11 10 360
207 221 237 255 287 303 310 315 319 318 318 319 317 314 311 310 310 312 314 324 334 341 349 352 353 349 360 5 5 10 10 7
205 218 233 257 283 296 305 313 317 320 324 328 326 322 315 308 301 299 301 305 312 323 333 342 348 351 347 1 4 6 11 10
204 214 231 260 284 297 306 318 325 333 339 344 345 342 338 331 319 304 292 291 297 303 313 324 336 346 348 349 1 3 5 13
209 218 235 264 285 298 310 326 338 343 346 348 346 344 341 340 336 326 311 293 286 289 295 306 318 331 341 344 351 359 2 5
214 222 239 263 282 293 310 330 343 347 349 350 350 349 347 345 342 338 332 317 298 290 289 294 301 310 322 340 345 351 359 1
212 220 239 259 273 280 301 332 347 352 354 353 354 354 354 352 349 345 339 332 318 304 298 294 294 293 306 320 342 340 351 359
211 219 239 254 255 250 289 335 352 359 356 358 360 359 -0 1 359 356 350 339 329 316 310 305 300 297 303 306 325 333 335 350
208 219 234 237 229 228 269 329 357 5 3 4 5 3 8 8 5 3 358 353 345 329 315 311 310 307 305 307 318 316 329 322
207 217 222 218 214 211 229 304 359 13 10 10 10 9 14 14 11 7 6 1 1 355 333 317 314 316 311 315 323 325 329 325
205 211 209 204 203 200 210 238 4 16 16 15 14 14 17 18 17 14 10 12 11 4 358 331 314 325 334 338 343 325 320 323
203 203 202 201 196 198 203 207 149 17 20 16 17 17 18 20 18 19 15 16 12 9 5 358 344 315 323 336 335 310 304 293
201 199 200 199 195 196 200 199 188 11 8 7 15 19 17 14 17 17 17 16 12 9 5 1 359 351 333 320 312 300 291 285
201 198 200 199 197 197 201 197 196 240 329 344 2 16 16 10 7 11 14 15 10 7 4 359 355 351 342 333 319 319 299 285
197 198 201 199 200 201 202 201 204 220 269 314 339 353 358 1 3 358 0 3 5 7 2 359 354 347 344 340 330 316 301 280
200 199 201 202 203 204 207 206 212 220 249 285 312 333 340 341 342 348 352 348 352 357 359 359 356 354 351 345 340 332 324 279
197 202 203 205 206 208 212 213 219 230 244 267 292 309 321 326 330 333 337 342 346 348 350 356 356 359 360 357 358 351 332 316
200 204 206 207 211 212 217 222 226 236 248 262 277 292 305 313 317 323 327 331 336 340 344 348 353 3 1 3 3 2 350 332
Wind_Speed_850mb
10 11 11 12 13 16 20 27 29 31 33 34 34 32 33 35 38 39 41 44 46 43 42 43 46 49 46 49 47 41 41 51
15 15 14 13 14 18 24 30 30 32 33 33 35 36 36 35 36 37 39 42 44 46 45 42 43 45 47 46 50 49 36 42
19 17 16 16 16 20 25 29 32 35 36 37 40 42 41 39 36 35 36 39 43 44 45 45 40 40 45 47 48 51 49 39
23 20 19 17 18 23 28 31 37 42 44 46 49 52 52 50 46 40 37 36 38 40 44 44 45 39 37 42 46 47 48 47
26 24 22 20 23 27 31 36 40 44 47 49 50 50 53 55 55 51 45 41 37 36 38 41 40 41 37 36 41 45 46 46
31 27 24 22 26 29 34 34 36 39 40 41 44 46 47 48 49 48 47 44 40 36 34 36 37 37 40 35 35 41 43 44
38 33 27 23 27 31 29 27 27 32 36 40 43 45 47 47 46 43 38 37 37 34 32 32 33 33 32 34 31 33 39 43
42 34 28 23 26 26 20 18 23 29 34 38 41 44 45 46 44 41 35 29 30 31 30 27 28 30 29 28 29 27 32 38
43 36 27 24 23 17 11 15 20 26 30 35 39 42 43 43 42 39 36 31 26 25 26 25 24 29 29 27 22 22 23 29
39 33 26 23 19 11 7 11 16 22 27 32 37 41 42 43 43 40 36 30 25 23 24 26 24 26 27 27 20 16 16 18
41 31 26 22 18 11 4 6 11 17 24 30 35 38 41 44 44 41 38 35 29 22 22 25 25 24 27 25 21 20 15 13
39 29 25 23 19 11 6 4 8 14 20 25 31 35 40 41 43 43 41 36 33 27 19 21 25 23 25 28 24 26 19 17
39 31 29 28 22 15 10 4 4 10 16 21 26 32 36 39 41 43 43 39 39 36 29 21 23 23 23 28 25 22 21 17
39 35 34 31 25 20 14 8 1 7 12 16 22 27 32 36 39 42 44 42 41 40 39 37 28 23 23 25 31 25 23 21
43 41 39 35 30 24 19 12 5 2 8 12 17 22 27 31 35 38 42 43 43 45 45 43 39 35 28 29 29 25 24 27
45 43 41 37 32 28 23 16 9 3 5 10 14 18 20 24 30 33 36 39 43 46 46 47 46 43 42 39 34 33 32 32
49 46 43 39 35 31 27 20 14 8 6 9 12 16 19 20 21 26 29 31 34 39 45 46 42 42 41 38 33 36 34 25
47 44 43 41 38 34 30 24 19 13 10 10 12 15 20 25 28 26 22 28 31 34 39 45 50 46 43 42 37 26 20 15
48 46 44 42 39 36 33 28 23 18 15 14 15 17 19 24 28 32 35 34 33 32 36 40 46 48 51 52 40 24 18 16
48 46 46 43 42 39 35 32 27 23 21 20 20 21 22 26 29 32 34 37 36 35 34 37 41 47 49 53 50 38 24 20
Wind_Direction_850mb
211 239 261 280 302 314 327 331 333 336 341 344 345 346 347 349 352 356 358 359 358 354 355 1 6 3 13 12 12 353 358 360
208 231 248 264 288 310 325 327 329 333 337 338 336 335 336 337 340 346 351 354 356 359 355 353 0 5 3 11 12 11 359 350
208 223 240 254 281 307 317 319 322 325 327 327 325 323 323 324 326 329 336 343 350 354 355 355 351 1 4 5 10 11 10 360
207 221 237 255 287 303 310 315 319 318 318 319 317 314 311 310 310 312 314 324 334 341 349 352 353 349 360 5 5 10 10 7
205 218 233 257 283 296 305 313 317 320 324 328 326 322 315 308 301 299 301 305 312 323 333 342 348 351 347 1 4 6 11 10
204 214 231 260 284 297 306 318 325 333 339 344 345 342 338 331 319 304 292 291 297 303 313 324 336 346 348 349 1 3 5 13
209 218 235 264 285 298 310 326 338 343 346 348 346 344 341 340 336 326 311 293 286 289 295 306 318 331 341 344 351 359 2 5
214 222 239 263 282 293 310 330 343 347 349 350 350 349 347 345 342 338 332 317 298 290 289 294 301 310 322 340 345 351 359 1
212 220 239 259 273 280 301 332 347 352 354 353 354 354 354 352 349 345 339 332 318 304 298 294 294 293 306 320 342 340 351 359
211 219 239 254 255 250 289 335 352 359 356 358 360 359 -0 1 359 356 350 339 329 316 310 305 300 297 303 306 325 333 335 350
208 219 234 237 229 228 269 329 357 5 3 4 5 3 8 8 5 3 358 353 345 329 315 311 310 307 305 307 318 316 329 322
207 217 222 218 214 211 229 304 359 13 10 10 10 9 14 14 11 7 6 1 1 355 333 317 314 316 311 315 323 325 329 325
205 211 209 204 203 200 210 238 4 16 16 15 14 14 17 18 17 14 10 12 11 4 358 331 314 325 334 338 343 325 320 323
203 203 202 201 196 198 203 207 149 17 20 16 17 17 18 20 18 19 15 16 12 9 5 358 344 315 323 336 335 310 304 293
201 199 200 199 195 196 200 199 188 11 8 7 15 19 17 14 17 17 17 16 12 9 5 1 359 351 333 320 312 300 291 285
201 198 200 199 197 197 201 197 196 240 329 344 2 16 16 10 7 11 14 15 10 7 4 359 355 351 342 333 319 319 299 285
197 198 201 199 200 201 202 201 204 220 269 314 339 353 358 1 3 358 0 3 5 7 2 359 354 347 344 340 330 316 301 280
200 199 201 202 203 204 207 206 212 220 249 285 312 333 340 341 342 348 352 348 352 357 359 359 356 354 351 345 340 332 324 279
197 202 203 205 206 208 212 213 219 230 244 267 292 309 321 326 330 333 337 342 346 348 350 356 356 359 360 357 358 351 332 316
200 204 206 207 211 212 217 222 226 236 248 262 277 292 305 313 317 323 327 331 336 340 344 348 353 3 1 3 3 2 350 332